This demonstration page uses our WeatherBlox Daily Observations layout. Learn more.

39.29038, -76.61219

Hourly Observations for April 4, 2019

Temp ( °F °C ) Dew Point ( °F °C ) Humidity (%) Winds ( mph kmh ) Pressure ( in mb ) Visibility ( mi km ) Precip ( " mm )
12:54 am 00:54 undefined 56 13.3 19 -7.2 24 24 undefined N/A 30.29 1026 N/A 0 0
1:54 am 01:54 undefined 55 12.8 19 -7.2 24 24 undefined N/A 30.3 1026 N/A 0 0
2:54 am 02:54 undefined 53 11.7 21 -6.1 28 28 undefined N/A 30.31 1026 N/A 0 0
3:54 am 03:54 undefined 53 11.7 21 -6.1 28 28 undefined N/A 30.33 1027 N/A 0 0
4:54 am 04:54 undefined 51 10.6 24 -4.4 35 35 undefined N/A 30.35 1028 N/A 0 0
5:54 am 05:54 undefined 51 10.6 25 -3.9 36 36 undefined N/A 30.37 1028 N/A 0 0
6:54 am 06:54 undefined 50 10 29 -1.7 44 44 undefined N/A 30.4 1030 N/A 0 0
7:54 am 07:54 undefined 52 11.1 25 -3.9 35 35 undefined N/A 30.42 1030 N/A 0 0
8:54 am 08:54 undefined 56 13.3 26 -3.3 32 32 undefined N/A 30.43 1030 N/A 0 0
9:54 am 09:54 undefined 61 16.1 26 -3.3 26 26 undefined N/A 30.42 1030 N/A 0 0
10:54 am 10:54 undefined 62 16.7 24 -4.4 23 23 undefined N/A 30.43 1030 N/A 0 0
11:54 am 11:54 undefined 63 17.2 25 -3.9 24 24 undefined N/A 30.42 1030 N/A 0 0
12:54 pm 12:54 undefined 64 17.8 25 -3.9 23 23 undefined N/A 30.41 1030 N/A 0 0
1:54 pm 13:54 undefined 65 18.3 27 -2.8 24 24 undefined N/A 30.39 1029 N/A 0 0
2:54 pm 14:54 undefined 61 16.1 27 -2.8 27 27 undefined N/A 30.38 1029 N/A 0 0
3:54 pm 15:54 undefined 62 16.7 28 -2.2 28 28 undefined N/A 30.37 1028 N/A 0 0
4:54 pm 16:54 undefined 62 16.7 27 -2.8 26 26 undefined N/A 30.35 1028 N/A 0 0
5:54 pm 17:54 undefined 62 16.7 28 -2.2 28 28 undefined N/A 30.36 1028 N/A 0 0
6:54 pm 18:54 undefined 60 15.6 30 -1.1 32 32 undefined N/A 30.36 1028 N/A 0 0
7:54 pm 19:54 undefined 59 15 29 -1.7 32 32 undefined N/A 30.37 1029 N/A 0 0
8:54 pm 20:54 undefined 58 14.4 31 -0.6 36 36 undefined N/A 30.38 1029 N/A 0 0
9:54 pm 21:54 undefined 58 14.4 30 -1.1 35 35 undefined N/A 30.38 1029 N/A 0 0
10:54 pm 22:54 undefined 56 13.3 33 0.6 42 42 undefined N/A 30.37 1028 N/A 0 0
11:54 pm 23:54 undefined 55 12.8 33 0.6 44 44 undefined N/A 30.37 1028 N/A 0 0

Powered by AerisWeather